When you browse on this site, cookies collect data to enhance your experience and personalize the content and advertising you see.
Visit our Privacy Policy to learn more. By continuing to use the site, you agree to this use of cookies and data.
  • In Latvia
  • List of Countries
  • For 7 days
  • Water Temperature
  • Weather Map
  • Weather Widgets
  • user-avatar
    Login

    Hourly Weather Algiers

    Today, 18 February, Tuesday

    Time Temperature Precipitation Wind Pressure Humidity
    00:00 +15°C° 0 mm 1 mps 757 mmHg 91%
    01:00 +15°C° 0 mm 1 mps 757 mmHg 91%
    02:00 +14°C° 0 mm 1 mps 757 mmHg 92%
    03:00 +14°C° 0 mm 2 mps 756 mmHg 93%
    04:00 +14°C° 0 mm 2 mps 757 mmHg 93%
    05:00 +14°C° 0 mm 2 mps 757 mmHg 92%
    06:00 +15°C° 0 mm 2 mps 757 mmHg 92%
    07:00 +15°C° 0 mm 2 mps 757 mmHg 88%
    08:00 +16°C° 0 mm 3 mps 758 mmHg 85%
    09:00 +16°C° 0 mm 3 mps 758 mmHg 81%
    10:00 +16°C° 0 mm 3 mps 758 mmHg 79%
    11:00 +17°C° 0 mm 4 mps 758 mmHg 77%
    12:00 +17°C° 0 mm 4 mps 758 mmHg 73%
    13:00 +17°C° 0 mm 4 mps 757 mmHg 73%
    14:00 +16°C° 0 mm 5 mps 757 mmHg 73%
    15:00 +16°C° 0 mm 6 mps 756 mmHg 73%
    16:00 +15°C° 0 mm 6 mps 757 mmHg 76%
    17:00 +15°C° 0 mm 6 mps 757 mmHg 78%
    18:00 +14°C° 0 mm 6 mps 757 mmHg 81%
    19:00 +14°C° 0 mm 6 mps 757 mmHg 83%
    20:00 +13°C° 0 mm 6 mps 757 mmHg 84%
    21:00 +13°C° 0 mm 6 mps 758 mmHg 86%
    22:00 +11°C° 0 mm 6 mps 758 mmHg 86%
    23:00 +11°C° 0 mm 6 mps 757 mmHg 86%

    Tomorrow, 19 February, Wednesday

    Time Temperature Precipitation Wind Pressure Humidity
    00:00 +12°C° 0 mm 5 mps 757 mmHg 86%
    01:00 +12°C° 0 mm 5 mps 757 mmHg 86%
    02:00 +12°C° 0 mm 5 mps 757 mmHg 86%
    03:00 +11°C° 0 mm 6 mps 757 mmHg 85%
    04:00 +11°C° 0 mm 6 mps 757 mmHg 85%
    05:00 +11°C° 0 mm 6 mps 757 mmHg 84%
    06:00 +11°C° 0 mm 6 mps 758 mmHg 83%
    07:00 +13°C° 0 mm 6 mps 758 mmHg 80%
    08:00 +13°C° 0 mm 6 mps 758 mmHg 78%
    09:00 +13°C° 0 mm 6 mps 759 mmHg 75%
    10:00 +14°C° 0 mm 6 mps 759 mmHg 71%
    11:00 +15°C° 0 mm 6 mps 758 mmHg 67%
    12:00 +16°C° 0 mm 6 mps 758 mmHg 63%
    13:00 +15°C° 0 mm 7 mps 758 mmHg 64%
    14:00 +15°C° 0 mm 7 mps 758 mmHg 65%
    15:00 +15°C° 0 mm 7 mps 757 mmHg 66%
    16:00 +14°C° 0 mm 7 mps 757 mmHg 70%
    17:00 +13°C° 0 mm 6 mps 757 mmHg 74%
    18:00 +11°C° 0 mm 6 mps 757 mmHg 78%
    19:00 +12°C° 0 mm 5 mps 757 mmHg 78%
    20:00 +11°C° 0 mm 4 mps 757 mmHg 79%
    21:00 +11°C° 0 mm 4 mps 758 mmHg 79%
    22:00 +11°C° 0 mm 3 mps 757 mmHg 79%
    23:00 +11°C° 0 mm 3 mps 757 mmHg 78%

    Day after tomorrow, 20 February, Thursday

    Time Temperature Precipitation Wind Pressure Humidity
    00:00 +11°C° 0 mm 3 mps 757 mmHg 78%
    01:00 +10°C° 0 mm 2 mps 756 mmHg 78%
    02:00 +10°C° 0 mm 2 mps 756 mmHg 78%
    03:00 +10°C° 0 mm 2 mps 755 mmHg 77%
    04:00 +10°C° 0 mm 2 mps 755 mmHg 77%
    05:00 +10°C° 0 mm 2 mps 755 mmHg 78%
    06:00 +10°C° 0 mm 2 mps 754 mmHg 78%
    07:00 +12°C° 0 mm 2 mps 755 mmHg 73%
    08:00 +14°C° 0 mm 2 mps 755 mmHg 67%
    09:00 +15°C° 0 mm 2 mps 755 mmHg 62%
    10:00 +16°C° 0 mm 3 mps 754 mmHg 59%
    11:00 +17°C° 0 mm 3 mps 754 mmHg 56%
    12:00 +18°C° 0 mm 4 mps 753 mmHg 53%
    13:00 +18°C° 0 mm 4 mps 753 mmHg 54%
    14:00 +18°C° 0 mm 4 mps 753 mmHg 56%
    15:00 +18°C° 0 mm 4 mps 752 mmHg 57%
    16:00 +17°C° 0 mm 4 mps 752 mmHg 62%
    17:00 +15°C° 0 mm 4 mps 752 mmHg 67%
    18:00 +14°C° 0 mm 5 mps 752 mmHg 73%
    19:00 +14°C° 0 mm 4 mps 753 mmHg 72%
    20:00 +14°C° 0 mm 4 mps 753 mmHg 71%
    21:00 +14°C° 0 mm 4 mps 754 mmHg 71%
    22:00 +14°C° 0 mm 4 mps 754 mmHg 70%
    23:00 +14°C° 0 mm 4 mps 754 mmHg 70%

    21 February, Friday

    Time Temperature Precipitation Wind Pressure Humidity
    00:00 +14°C° 0 mm 4 mps 754 mmHg 69%
    01:00 +13°C° 0 mm 4 mps 754 mmHg 69%
    02:00 +13°C° 0 mm 3 mps 754 mmHg 68%
    03:00 +13°C° 0 mm 3 mps 754 mmHg 67%
    04:00 +13°C° 0 mm 4 mps 754 mmHg 69%
    05:00 +13°C° 0 mm 4 mps 754 mmHg 71%
    06:00 +13°C° 0 mm 4 mps 754 mmHg 72%
    13:00 +16°C° 0 mm 6 mps 756 mmHg 72%
    14:00 +16°C° 0 mm 6 mps 755 mmHg 73%
    15:00 +15°C° 0 mm 6 mps 755 mmHg 75%
    16:00 +15°C° 0 mm 6 mps 756 mmHg 78%
    17:00 +14°C° 0 mm 5 mps 756 mmHg 81%
    18:00 +13°C° 0 mm 5 mps 756 mmHg 84%
    19:00 +13°C° 0 mm 5 mps 757 mmHg 85%
    20:00 +13°C° 0 mm 5 mps 757 mmHg 85%
    21:00 +12°C° 0 mm 5 mps 757 mmHg 85%
    22:00 +12°C° 0 mm 5 mps 757 mmHg 85%
    23:00 +12°C° 0 mm 4 mps 757 mmHg 86%

    22 February, Saturday

    Time Temperature Precipitation Wind Pressure Humidity
    00:00 +11°C° 0 mm 4 mps 758 mmHg 86%
    01:00 +11°C° 0 mm 4 mps 758 mmHg 86%
    02:00 +11°C° 0 mm 4 mps 758 mmHg 86%
    03:00 +11°C° 0 mm 4 mps 758 mmHg 86%
    04:00 +11°C° 0 mm 4 mps 758 mmHg 85%
    05:00 +11°C° 0 mm 4 mps 758 mmHg 85%
    06:00 +11°C° 0 mm 4 mps 758 mmHg 85%
    07:00 +12°C° 0 mm 4 mps 758 mmHg 80%
    08:00 +13°C° 0 mm 4 mps 759 mmHg 75%
    09:00 +14°C° 0 mm 5 mps 759 mmHg 70%
    10:00 +15°C° 0 mm 5 mps 759 mmHg 65%
    11:00 +16°C° 0 mm 6 mps 759 mmHg 61%
    12:00 +16°C° 0 mm 6 mps 759 mmHg 56%
    13:00 +16°C° 0 mm 6 mps 759 mmHg 58%
    14:00 +16°C° 0 mm 7 mps 759 mmHg 61%
    15:00 +16°C° 0 mm 7 mps 758 mmHg 63%
    16:00 +15°C° 0 mm 7 mps 759 mmHg 66%
    17:00 +14°C° 0 mm 6 mps 759 mmHg 70%
    18:00 +11°C° 0 mm 6 mps 759 mmHg 74%
    19:00 +12°C° 0 mm 5 mps 760 mmHg 74%
    20:00 +12°C° 0 mm 5 mps 760 mmHg 74%
    21:00 +10°C° 0 mm 5 mps 760 mmHg 74%
    22:00 +11°C° 0 mm 4 mps 760 mmHg 73%
    23:00 +11°C° 0 mm 3 mps 760 mmHg 72%

    23 February, Sunday

    Time Temperature Precipitation Wind Pressure Humidity
    00:00 +11°C° 0 mm 3 mps 760 mmHg 71%
    01:00 +10°C° 0 mm 3 mps 760 mmHg 71%
    02:00 +10°C° 0 mm 3 mps 760 mmHg 70%
    03:00 +10°C° 0 mm 3 mps 760 mmHg 70%
    04:00 +10°C° 0 mm 3 mps 760 mmHg 69%
    05:00 +10°C° 0 mm 3 mps 760 mmHg 67%
    06:00 +10°C° 0 mm 3 mps 760 mmHg 66%
    07:00 +11°C° 0 mm 3 mps 760 mmHg 62%
    08:00 +12°C° 0 mm 3 mps 760 mmHg 57%
    09:00 +14°C° 0 mm 3 mps 761 mmHg 53%
    10:00 +16°C° 0 mm 3 mps 761 mmHg 52%
    11:00 +17°C° 0 mm 3 mps 760 mmHg 50%
    12:00 +18°C° 0 mm 4 mps 760 mmHg 49%
    13:00 +18°C° 0 mm 4 mps 760 mmHg 52%
    14:00 +18°C° 0 mm 4 mps 759 mmHg 55%
    15:00 +18°C° 0 mm 4 mps 759 mmHg 58%
    16:00 +15°C° 0 mm 4 mps 759 mmHg 64%
    17:00 +14°C° 0 mm 4 mps 759 mmHg 71%
    18:00 +13°C° 0 mm 4 mps 759 mmHg 77%
    19:00 +13°C° 0 mm 4 mps 759 mmHg 76%
    20:00 +13°C° 0 mm 4 mps 760 mmHg 75%
    21:00 +13°C° 0 mm 3 mps 760 mmHg 75%
    22:00 +13°C° 0 mm 3 mps 760 mmHg 73%
    23:00 +13°C° 0 mm 3 mps 760 mmHg 71%
    Show more